Flag for United Kingdom Weather past 2 weeks in St Helens, England, United Kingdom

Now
81 °F

Sunny.


Feels Like: 81 °F
Forecast: 64 / 83 °F
Wind: 12 mph from South

Location: Liverpool Airport

Current Time: Jun 30, 2015 at 3:35:17 PM

Latest Report: Jun 30, 2015 at 1:50 PM


Visibility: 10 mi

Pressure: 30.01 "Hg

Humidity: 51%

Dew point: 61 °F

Location of St HelensLocation

Historic Weather in St Helens — Graph

°F

St Helens temperature yesterday

Maximum temperature yesterday: 73 °F (at 7:20 PM)
Minimum temperature yesterday: 55 °F (at 3:20 AM)
Average temperature yesterday: 64 °F

Past Weeks' High & Low Weather Summary

 TemperatureHumidityPressure
High81 °F (Jun 30, 1:50 PM)100% (Jun 16, 5:50 AM)30.27 "Hg (Jun 16, 5:50 AM)
Low50 °F (Jun 22, 5:50 AM)50% (Jun 29, 4:20 PM)29.80 "Hg (Jun 22, 7:50 AM)
Average60 °F78%30.08 "Hg
* Reported Jun 15 1:20 PM — Jun 30 1:50 PM, St Helens, Weather by CustomWeather, © 2015

Note: Actual official high and low records may vary slightly from our data, if they occured in-between our weather recording intervals... More about our weather records

Advertising

St Helens weather history for previous 24 hours

 ConditionsComfort  
Time TempWeatherWind HumidityBarometerVisibility
1:50 PM
Tue, Jun 30
81 °FSunny.12 mph51%30.01 "Hg10 mi
1:20 PM79 °FSunny.13 mph54%30.04 "Hg10 mi
12:50 PM77 °FSunny.12 mph57%30.04 "Hg10 mi
12:20 PM77 °FSunny.9 mph54%30.04 "Hg10 mi
11:50 AM77 °FSunny.12 mph57%30.04 "Hg10 mi
11:20 AM75 °FSunny.13 mph61%30.04 "Hg10 mi
10:50 AM75 °FSunny.9 mph61%30.04 "Hg10 mi
10:20 AM73 °FSunny.9 mph65%30.04 "Hg10 mi
9:20 AM70 °FSunny.9 mph69%30.07 "Hg10 mi
8:50 AM66 °FPassing clouds.8 mph73%30.07 "HgN/A
8:20 AM66 °FPassing clouds.7 mph78%30.07 "HgN/A
7:50 AM66 °FSunny.8 mph73%30.07 "Hg10 mi
7:20 AM64 °FPassing clouds.7 mph78%30.07 "HgN/A
6:50 AM63 °FSunny.6 mph83%30.07 "Hg10 mi
6:20 AM63 °FPassing clouds.7 mph83%30.07 "HgN/A
5:50 AM61 °FSunny.6 mph88%30.07 "Hg10 mi
5:20 AM63 °FClear.6 mph83%30.07 "Hg10 mi
4:50 AM61 °FPassing clouds.6 mph83%30.07 "HgN/A
4:20 AM61 °FPassing clouds.6 mph83%30.07 "HgN/A
3:50 AM61 °FPassing clouds.6 mph83%30.09 "HgN/A
3:20 AM61 °FPassing clouds.6 mph77%30.09 "HgN/A
2:50 AM63 °FPassing clouds.7 mph77%30.09 "HgN/A
2:20 AM63 °FPassing clouds.6 mph77%30.09 "HgN/A
1:50 AM64 °FPassing clouds.7 mph73%30.09 "HgN/A
1:20 AM64 °FPassing clouds.6 mph73%30.09 "HgN/A
12:50 AM63 °FClear.5 mph83%30.09 "Hg10 mi
12:20 AM61 °FClear.5 mph88%30.09 "Hg10 mi
11:50 PM
Mon, Jun 29
63 °FClear.2 mph83%30.12 "Hg10 mi
11:20 PM63 °FClear.3 mph83%30.12 "Hg10 mi
10:20 PM66 °FPassing clouds.5 mph64%30.12 "HgN/A
9:50 PM66 °FPassing clouds.6 mph64%30.12 "HgN/A
9:20 PM68 °FPassing clouds.6 mph60%30.12 "HgN/A
8:50 PM70 °FPassing clouds.2 mph60%30.09 "HgN/A
8:20 PM68 °FPassing clouds.2 mph64%30.12 "HgN/A
7:50 PM70 °FPassing clouds.3 mph60%30.12 "HgN/A
7:20 PM73 °FPassing clouds.2 mph53%30.12 "HgN/A
6:50 PM72 °FPassing clouds.2 mph50%30.12 "HgN/A
6:20 PM72 °FPassing clouds.1 mph53%30.12 "HgN/A
5:50 PM70 °FPassing clouds.3 mph57%30.12 "HgN/A
5:20 PM72 °FPassing clouds.7 mph53%30.12 "HgN/A
4:50 PM72 °FPassing clouds.5 mph53%30.12 "HgN/A
4:20 PM72 °FPassing clouds.5 mph50%30.12 "HgN/A
3:50 PM72 °FPassing clouds.5 mph53%30.12 "HgN/A
3:20 PM68 °FPassing clouds.5 mph60%30.12 "HgN/A
Weather by CustomWeather, © 2015

See weather overviewHow to use our weather pages